EW3867 Weather Reports


time (UTC)temp
C
wind
direction
speed
KPH
gust
KPH
rain 1hr
cm
rain 24hr
cm
rain mn
cm
humidity
%
barometer
mb
20260509231035 22 338 32.2 45.1 0.00 0.00 0.00 21 1003.5
20260509230001 22 0 30.6 45.1 0.00 0.00 0.00 21 1003.6
20260509224955 22 355 32.2 51.5 0.00 0.00 0.00 21 1003.5
20260509222821 22 355 32.2 45.1 0.00 0.00 0.00 20 1003.8
20260509221755 23 331 29.0 40.2 0.00 0.00 0.00 19 1003.5
20260509220817 22 348 27.4 40.2 0.00 0.00 0.00 18 1003.6
20260509215749 22 0 24.1 33.8 0.00 0.00 0.00 17 1003.7
20260509214749 22 0 14.5 27.4 0.00 0.00 0.00 18 1003.5
20260509201644 23 335 11.3 24.1 0.00 0.00 0.00 16 1004.2
20260509200702 24 0 12.9 33.8 0.00 0.00 0.00 15 1004.3
20260509195642 23 262 11.3 32.2 0.00 0.00 0.00 15 1004.2
20260509194623 23 0 6.4 11.3 0.00 0.00 0.00 17 1004.4
20260509193557 23 349 11.3 45.1 0.00 0.00 0.00 15 1004.1
20260509192602 23 339 16.1 33.8 0.00 0.00 0.00 16 1004.7
20260509191552 23 0 12.9 33.8 0.00 0.00 0.00 16 1004.8
20260509190550 24 0 12.9 29.0 0.00 0.00 0.00 15 1004.9
20260509185540 23 340 12.9 30.6 0.00 0.00 0.00 15 1005.0
20260509184548 24 265 17.7 32.2 0.00 0.00 0.00 16 1005.2
20260509183541 24 0 12.9 32.2 0.00 0.00 0.00 16 1005.1
20260509182526 24 238 9.7 27.4 0.00 0.00 0.00 17 1005.4
20260509181522 23 0 11.3 27.4 0.00 0.00 0.00 17 1005.5
20260509180528 23 0 14.5 37.0 0.00 0.00 0.00 18 1005.7
20260509174341 23 0 17.7 35.4 0.00 0.00 0.00 17 1005.7
20260509172202 23 0 20.9 46.7 0.00 0.00 0.00 18 1005.9
20260509164917 23 0 9.7 35.4 0.00 0.00 0.00 18 1006.0
20260509161648 22 336 22.5 35.4 0.00 0.00 0.00 18 1006.1
20260509160651 21 0 11.3 25.7 0.00 0.00 0.00 18 1006.0
20260509155629 22 0 17.7 32.2 0.00 0.00 0.00 19 1006.1
20260509154638 21 0 17.7 32.2 0.00 0.00 0.00 18 1006.1
20260509153636 21 332 11.3 32.2 0.00 0.00 0.00 18 1006.1
20260509152637 21 342 14.5 24.1 0.00 0.00 0.00 19 1006.1
20260509145404 20 0 6.4 17.7 0.00 0.00 0.00 20 1006.3
20260509144352 19 0 6.4 19.3 0.00 0.00 0.00 20 1006.3
20260509143353 18 0 6.4 17.7 0.00 0.00 0.00 20 1006.3
20260509142354 18 0 1.6 16.1 0.00 0.00 0.00 22 1006.4
20260509141406 17 0 0.0 8.0 0.00 0.00 0.00 24 1006.3
20260509140406 16 0 0.0 3.2 0.00 0.00 0.00 26 1006.4
20260509135352 15 0 0.0 0.0 0.00 0.00 0.00 27 1006.4
20260509133221 13 0 0.0 0.0 0.00 0.00 0.00 32 1006.5
20260509132220 11 0 0.0 0.0 0.00 0.00 0.00 35 1006.4
20260509131235 10 0 0.0 0.0 0.00 0.00 0.00 36 1006.4
20260509130239 10 0 0.0 0.0 0.00 0.00 0.00 37 1006.3
20260509125208 9 0 0.0 0.0 0.00 0.00 0.00 37 1006.1
20260509124224 9 0 0.0 0.0 0.00 0.00 0.00 37 1005.9
20260509123208 8 0 0.0 0.0 0.00 0.00 0.00 38 1005.9
20260509122219 8 0 0.0 0.0 0.00 0.00 0.00 37 1005.7
20260509121231 8 0 0.0 1.6 0.00 0.00 0.00 37 1005.5
20260509120206 9 0 0.0 0.0 0.00 0.00 0.00 36 1005.4
20260509115219 9 0 0.0 0.0 0.00 0.00 0.00 36 1005.5
20260509114207 8 0 0.0 0.0 0.00 0.00 0.00 37 1005.3
20260509113230 9 0 0.0 0.0 0.00 0.00 0.00 36 1005.2
20260509112203 10 0 0.0 1.6 0.00 0.00 0.00 34 1005.1
20260509111138 10 0 0.0 0.0 0.00 0.00 0.00 35 1004.8
20260509110112 10 0 0.0 11.3 0.00 0.00 0.00 36 1004.9
20260509103946 10 0 0.0 0.0 0.00 0.00 0.00 35 1005.0
20260509102933 9 0 0.0 0.0 0.00 0.00 0.00 36 1005.1
20260509101928 9 0 0.0 0.0 0.00 0.00 0.00 36 1005.1
20260509100907 10 0 0.0 0.0 0.00 0.00 0.00 33 1005.2
20260509095910 11 0 0.0 0.0 0.00 0.00 0.00 33 1005.3
20260509094850 11 0 0.0 0.0 0.00 0.00 0.00 32 1005.4
20260509093835 11 0 0.0 0.0 0.00 0.00 0.00 32 1005.4
20260509092809 11 0 0.0 0.0 0.00 0.00 0.00 32 1005.4
20260509091744 11 0 0.0 0.0 0.00 0.00 0.00 33 1005.2
20260509090713 10 0 0.0 0.0 0.00 0.00 0.00 33 1005.2
20260509084547 11 0 0.0 0.0 0.00 0.00 0.00 33 1005.2
20260509083533 10 0 0.0 0.0 0.00 0.00 0.00 33 1005.1
20260509081344 10 0 0.0 0.0 0.00 0.00 0.00 33 1005.2
20260509072905 8 0 0.0 0.0 0.00 0.00 0.00 36 1005.3
20260509071901 8 0 0.0 1.6 0.00 0.00 0.00 35 1005.4
20260509070846 9 0 0.0 0.0 0.00 0.00 0.00 35 1005.5
20260509065850 9 0 0.0 0.0 0.00 0.00 0.00 33 1005.5
20260509064915 10 0 0.0 0.0 0.00 0.00 0.00 32 1005.5
20260509063920 11 0 0.0 0.0 0.00 0.00 0.00 31 1005.6
20260509062937 11 0 0.0 0.0 0.00 0.00 0.00 31 1005.7
20260509062000 11 0 0.0 0.0 0.00 0.00 0.00 30 1005.7
20260509055816 12 0 0.0 3.2 0.00 0.00 0.00 29 1005.7
20260509054812 12 0 0.0 4.8 0.00 0.00 0.00 30 1005.7
20260509053813 11 328 0.0 3.2 0.00 0.00 0.00 31 1005.8
20260509052834 10 328 0.0 1.6 0.00 0.00 0.00 32 1005.8
20260509051830 10 328 0.0 3.2 0.00 0.00 0.00 31 1005.8
20260509050808 11 334 0.0 0.0 0.00 0.00 0.00 29 1005.8
20260509045753 12 334 0.0 0.0 0.00 0.00 0.00 28 1005.7
20260509044729 12 334 0.0 0.0 0.00 0.00 0.00 28 1005.7
20260509042625 12 334 0.0 0.0 0.00 0.00 0.00 28 1005.7
20260509041615 13 334 0.0 0.0 0.00 0.00 0.00 28 1005.7
20260509040559 13 334 0.0 0.0 0.00 0.00 0.00 27 1005.6
20260509035530 13 334 0.0 0.0 0.00 0.00 0.00 27 1005.6
20260509034457 14 334 0.0 0.0 0.00 0.00 0.00 26 1005.4
20260509033429 14 334 0.0 0.0 0.00 0.00 0.00 25 1005.3
20260509031251 16 334 0.0 0.0 0.00 0.00 0.00 23 1005.2
20260509025132 17 0 0.0 3.2 0.00 0.00 0.00 22 1004.9
20260509024123 17 0 0.0 0.0 0.00 0.00 0.00 21 1004.7
20260509023148 18 0 0.0 0.0 0.00 0.00 0.00 21 1004.6
20260509022210 18 0 0.0 1.6 0.00 0.00 0.00 22 1004.6
20260509021216 18 0 0.0 0.0 0.00 0.00 0.00 21 1004.4
20260509020233 19 0 0.0 0.0 0.00 0.00 0.00 20 1004.3
20260509014124 21 0 0.0 19.3 0.00 0.00 0.00 19 1004.2
20260509013059 21 0 1.6 19.3 0.00 0.00 0.00 18 1004.1
20260509012102 21 0 1.6 12.9 0.00 0.00 0.00 18 1004.2
20260509011038 22 0 6.4 17.7 0.00 0.00 0.00 17 1004.2
20260509010027 22 0 6.4 20.9 0.00 0.00 0.00 18 1004.3
20260509003858 22 271 14.5 33.8 0.00 0.00 0.00 17 1004.2
20260509002914 23 0 11.3 38.6 0.00 0.00 0.00 17 1004.2
20260509001847 23 0 12.9 38.6 0.00 0.00 0.00 16 1004.2
20260509000841 23 0 9.7 24.1 0.00 0.00 0.00 15 1004.2
20260508235841 23 0 11.3 30.6 0.00 0.00 0.00 16 1004.3
20260508234829 23 269 17.7 35.4 0.00 0.00 0.00 16 1004.3